FW5908 Weather Reports


Display with metric or nautical units.
time (UTC)temp
F
wind
direction
speed
MPH
gust
MPH
rain 1hr
in
rain 24hr
in
rain mn
in
humidity
%
barometer
mb
20260906180200 89 211 1.0 8.0 0.00 0.00 0.01 65 1015.3
20260906175200 88 222 5.0 8.0 0.00 0.00 0.01 66 1015.5
20260906174200 87 180 2.0 9.0 0.00 0.00 0.01 68 1015.7
20260906173200 87 186 1.0 5.0 0.00 0.00 0.01 70 1015.8
20260906172200 86 220 1.0 5.0 0.00 0.00 0.01 73 1015.9
20260906171200 85 240 3.0 4.0 0.00 0.00 0.01 74 1016.0
20260906170200 83 225 2.0 3.0 0.00 0.00 0.01 80 1016.2
20260906165200 82 84 0.0 1.0 0.00 0.00 0.01 83 1016.3
20260906164200 81 84 0.0 2.0 0.00 0.00 0.01 84 1016.2
20260906163200 81 88 0.0 2.0 0.00 0.00 0.01 80 1016.3
20260906162200 82 88 0.0 6.0 0.00 0.00 0.01 76 1016.5
20260906161200 83 185 2.0 4.0 0.00 0.00 0.00 77 1016.7
20260906160159 83 245 1.0 3.0 0.00 0.00 0.00 78 1016.6
20260906155159 83 236 1.0 3.0 0.00 0.00 0.00 78 1016.3
20260906154159 82 240 0.0 3.0 0.00 0.00 0.00 79 1016.1
20260906153159 82 288 0.0 3.0 0.00 0.00 0.00 78 1016.2
20260906152159 82 263 0.0 4.0 0.00 0.00 0.00 78 1016.1
20260906151159 82 273 3.0 5.0 0.00 0.00 0.00 78 1016.0
20260906150159 82 283 1.0 5.0 0.00 0.00 0.00 79 1016.1
20260906145159 81 222 0.0 7.0 0.00 0.00 0.00 80 1016.0
20260906144159 81 240 1.0 4.0 0.00 0.00 0.00 81 1015.9
20260906143159 80 267 1.0 6.0 0.00 0.00 0.00 82 1016.1
20260906142159 80 269 3.0 9.0 0.00 0.00 0.00 82 1016.0
20260906141159 80 281 1.0 7.0 0.00 0.00 0.00 82 1016.1
20260906140159 79 324 1.0 4.0 0.00 0.00 0.00 83 1016.1
20260906135159 79 279 1.0 4.0 0.00 0.00 0.00 83 1016.2
20260906134159 78 302 1.0 4.0 0.00 0.00 0.00 84 1016.0
20260906133159 78 292 1.0 4.0 0.00 0.00 0.00 86 1016.0
20260906132159 77 306 1.0 4.0 0.00 0.00 0.00 86 1016.0
20260906131159 77 316 1.0 3.0 0.00 0.00 0.00 86 1016.0
20260906130159 76 329 0.0 5.0 0.00 0.00 0.00 86 1016.0
20260906125159 76 360 0.0 3.0 0.00 0.00 0.00 86 1015.9
20260906124159 76 5 1.0 3.0 0.00 0.00 0.00 86 1015.7
20260906123159 76 9 1.0 4.0 0.00 0.00 0.00 86 1015.6
20260906122159 76 355 3.0 4.0 0.00 0.00 0.00 86 1015.5
20260906121159 76 345 0.0 1.0 0.00 0.00 0.00 85 1015.6
20260906120159 76 344 0.0 3.0 0.00 0.00 0.00 85 1015.3
20260906115159 76 341 0.0 3.0 0.00 0.00 0.00 85 1015.1
20260906114159 76 342 1.0 3.0 0.00 0.00 0.00 85 1015.0
20260906113159 76 343 0.0 2.0 0.00 0.00 0.00 85 1015.0
20260906112159 76 344 0.0 2.0 0.00 0.00 0.00 85 1015.2
20260906111159 77 349 0.0 0.0 0.00 0.00 0.00 84 1015.1
20260906110159 77 349 0.0 2.0 0.00 0.00 0.00 85 1015.1
20260906105159 76 351 0.0 3.0 0.00 0.00 0.00 85 1014.9
20260906104159 76 355 2.0 3.0 0.00 0.00 0.00 85 1014.7
20260906103159 76 355 2.0 2.0 0.00 0.00 0.00 84 1014.6
20260906102159 77 355 0.0 2.0 0.00 0.00 0.00 84 1014.6
20260906101159 77 355 0.0 0.0 0.00 0.00 0.00 84 1014.5
20260906100159 76 355 0.0 0.0 0.00 0.00 0.00 85 1014.6
20260906095159 76 355 0.0 0.0 0.00 0.00 0.00 84 1014.6
20260906094159 77 355 0.0 0.0 0.00 0.00 0.00 84 1014.6
20260906093159 77 355 0.0 0.0 0.00 0.00 0.00 83 1014.6
20260906092158 77 355 0.0 0.0 0.00 0.00 0.00 83 1014.6
20260906091159 77 355 0.0 0.0 0.00 0.00 0.00 82 1014.6
20260906090158 78 355 0.0 0.0 0.00 0.00 0.00 82 1014.5
20260906085159 78 349 0.0 0.0 0.00 0.00 0.00 82 1014.5
20260906084159 78 349 0.0 0.0 0.00 0.00 0.00 82 1014.3
20260906083158 78 349 0.0 0.0 0.00 0.00 0.00 81 1014.3
20260906082159 78 355 0.0 0.0 0.00 0.00 0.00 81 1014.3
20260906081158 78 355 0.0 3.0 0.00 0.00 0.00 81 1014.3
20260906080158 78 260 1.0 4.0 0.00 0.00 0.00 81 1013.9
20260906075158 78 260 0.0 4.0 0.00 0.00 0.00 81 1014.1
20260906074158 78 277 1.0 3.0 0.00 0.00 0.00 81 1014.2
20260906073158 78 355 0.0 0.0 0.00 0.00 0.00 81 1014.2
20260906072158 78 355 0.0 3.0 0.00 0.00 0.00 81 1014.2
20260906071158 78 351 0.0 2.0 0.00 0.00 0.00 81 1014.5
20260906070158 78 351 0.0 1.0 0.00 0.00 0.00 81 1014.6
20260906065158 78 351 0.0 2.0 0.00 0.00 0.00 81 1014.5
20260906064158 78 351 0.0 2.0 0.00 0.00 0.00 81 1014.5
20260906063158 79 351 0.0 2.0 0.00 0.00 0.00 81 1014.6
20260906062158 79 351 1.0 2.0 0.00 0.00 0.00 80 1014.6
20260906061158 79 360 0.0 2.0 0.00 0.00 0.00 80 1014.6
20260906060158 79 360 0.0 1.0 0.00 0.00 0.00 80 1014.6
20260906055158 79 360 1.0 3.0 0.00 0.00 0.00 79 1014.5
20260906054158 80 355 0.0 3.0 0.00 0.00 0.00 79 1014.6
20260906053158 80 355 1.0 3.0 0.00 0.00 0.00 79 1014.7
20260906052158 80 360 0.0 3.0 0.00 0.00 0.00 78 1014.6
20260906051158 80 360 0.0 3.0 0.00 0.00 0.00 78 1014.6
20260906050158 80 75 1.0 3.0 0.00 0.00 0.00 77 1014.8
20260906045158 81 15 0.0 3.0 0.00 0.00 0.00 77 1014.7
20260906044158 81 355 2.0 3.0 0.00 0.00 0.00 76 1014.7
20260906043158 81 12 1.0 3.0 0.00 0.00 0.00 76 1014.8
20260906042158 82 17 1.0 4.0 0.00 0.00 0.00 76 1014.8
20260906041158 82 30 0.0 2.0 0.00 0.00 0.00 75 1014.7
20260906040158 82 23 1.0 2.0 0.00 0.00 0.00 75 1014.7
20260906035158 82 45 0.0 4.0 0.00 0.00 0.00 75 1014.7
20260906034158 82 33 0.0 3.0 0.00 0.00 0.00 75 1014.6
20260906033157 82 54 1.0 2.0 0.00 0.00 0.00 75 1014.2
20260906032158 82 24 0.0 2.0 0.00 0.00 0.00 75 1014.2
20260906031158 83 336 0.0 2.0 0.00 0.00 0.00 75 1013.9
20260906030158 83 360 0.0 3.0 0.00 0.00 0.00 75 1013.7
20260906025158 83 44 0.0 3.0 0.00 0.00 0.00 75 1013.7
20260906024157 83 45 1.0 3.0 0.00 0.00 0.00 74 1013.6
20260906023157 84 32 0.0 3.0 0.00 0.00 0.00 74 1013.4
20260906022157 84 34 0.0 4.0 0.00 0.00 0.00 74 1013.3
20260906021158 84 20 0.0 3.0 0.00 0.00 0.00 74 1013.0
20260906020157 84 55 1.0 2.0 0.00 0.00 0.00 74 1012.9
20260906015157 84 60 0.0 2.0 0.00 0.00 0.00 73 1012.8
20260906014157 85 55 0.0 0.0 0.00 0.00 0.00 73 1012.7
20260906013157 85 46 0.0 0.0 0.00 0.00 0.00 73 1012.5
20260906012157 86 48 0.0 0.0 0.00 0.00 0.00 72 1012.3
20260906011157 86 43 0.0 0.0 0.00 0.00 0.00 72 1012.2
20260906010157 86 76 0.0 0.0 0.00 0.00 0.00 71 1012.3
20260906005157 87 77 0.0 1.0 0.00 0.00 0.00 71 1012.1
20260906004157 88 57 1.0 2.0 0.00 0.00 0.00 70 1012.1
20260906003157 88 32 2.0 2.0 0.00 0.00 0.00 69 1012.2
20260906002157 89 41 1.0 1.0 0.00 0.00 0.00 69 1012.2
20260906001157 90 32 0.0 1.0 0.00 0.00 0.00 68 1012.2
20260906000157 90 32 1.0 2.0 0.00 0.00 0.00 67 1012.3
20260905235157 90 279 1.0 2.0 0.00 0.00 0.00 66 1012.2
20260905234157 91 278 1.0 2.0 0.00 0.00 0.00 65 1012.2
20260905233157 91 266 0.0 2.0 0.00 0.00 0.00 65 1012.2
20260905232157 91 288 2.0 2.0 0.00 0.00 0.00 64 1012.2
20260905231157 91 341 0.0 4.0 0.00 0.00 0.00 64 1012.1
20260905230157 91 281 1.0 4.0 0.00 0.00 0.00 65 1012.1
20260905225157 91 256 0.0 5.0 0.00 0.00 0.00 65 1012.1
20260905224157 91 267 3.0 7.0 0.00 0.00 0.00 64 1011.8
20260905223157 91 257 2.0 6.0 0.00 0.00 0.00 64 1011.9
20260905222157 91 225 0.0 4.0 0.00 0.00 0.00 64 1011.9
20260905221157 91 277 6.0 8.0 0.00 0.00 0.00 64 1012.0
20260905220157 90 257 2.0 7.0 0.00 0.00 0.00 64 1012.0
20260905215157 91 281 0.0 5.0 0.00 0.00 0.00 63 1012.1
20260905214157 91 340 2.0 4.0 0.00 0.00 0.00 63 1012.2
20260905213157 91 317 1.0 3.0 0.00 0.00 0.00 62 1012.4
20260905212157 90 267 0.0 4.0 0.00 0.00 0.00 64 1012.6
20260905211157 90 324 4.0 6.0 0.00 0.00 0.00 62 1012.7
20260905210157 90 54 0.0 4.0 0.00 0.00 0.00 62 1013.0
20260905205157 90 15 0.0 4.0 0.00 0.00 0.00 61 1013.1
20260905204156 91 343 0.0 5.0 0.00 0.00 0.00 61 1013.3
20260905203157 91 333 1.0 5.0 0.00 0.00 0.00 61 1013.5
20260905202156 91 48 3.0 6.0 0.00 0.00 0.00 59 1013.8
20260905201157 91 32 0.0 4.0 0.00 0.00 0.00 60 1013.9
20260905200157 90 11 3.0 5.0 0.00 0.00 0.00 59 1014.0
20260905195157 90 355 1.0 8.0 0.00 0.00 0.00 59 1014.1
20260905194156 91 355 5.0 6.0 0.00 0.00 0.00 59 1014.1
20260905193156 90 150 2.0 10.0 0.00 0.00 0.00 59 1014.2
20260905192156 90 84 1.0 6.0 0.00 0.00 0.00 59 1014.6
20260905191157 90 70 3.0 8.0 0.00 0.00 0.00 59 1014.7
20260905190156 90 49 1.0 7.0 0.00 0.00 0.00 62 1015.0
20260905185156 90 84 3.0 8.0 0.00 0.00 0.00 62 1015.4
20260905184156 90 98 3.0 6.0 0.00 0.00 0.00 63 1015.6
20260905183156 89 350 4.0 8.0 0.00 0.00 0.00 64 1015.7
20260905182156 89 44 2.0 9.0 0.00 0.00 0.00 65 1015.7
20260905181156 88 40 1.0 8.0 0.00 0.00 0.00 65 1015.6